Location: Plymouth Village
(34.0436°N, 117.1717°W)
Time: 05:07:25
(UTC+00:00)

Cosmos 2333 Rocket - Pass Details

Date: 10 September 2024
Orbit: 840 x 862 km, 70.8° (Epoch: 09 October)

Event Time Altitude Azimuth Distance (km) Brightness Sun altitude
Rises 12:19:42 0° 334° (NNW) 3,428 5.3 -14.9°
Reaches altitude 10° 12:22:11 10° 331° (NNW) 2,486 4.5 -14.4°
Maximum altitude 12:27:47 60° 253° (WSW) 962 2.2 -13.3°
Drops below altitude 10° 12:33:20 10° 174° (S) 2,457 4.5 -12.2°
Sets 12:35:47 0° 170° (S) 3,385 5.3 -11.7°
